Montpelier, VT

11:57 PM EST on November 16, 2019 (GMT -0500)
Knapp State

Weather History for KMPV - September, 2019

Change the Weather History Date:

Saturday, September 14, 2019

  Actual Average Record
Temperature  
Mean Temperature 58 °F 58 °F  
Max Temperature 64 °F 70 °F 85 °F (2005)
Min Temperature 51 °F 47 °F 28 °F (1955)
Degree Days  
Heating Degree Days 8 7  
Month to date heating degree days 103 77  
Since 1 July heating degree days 171 185  
Cooling Degree Days 0 1  
Month to date cooling degree days 5 14  
Year to date cooling degree days 216 258  
Growing Degree Days 8 (Base 50)    
Moisture  
Dew Point 51 °F    
Average Humidity 81    
Maximum Humidity 90    
Minimum Humidity 68    
Precipitation  
Precipitation T in 0.10 in 1.25 in (1979)
Month to date precipitation 1.42 1.30  
Year to date precipitation 36.22 26.10  
Sea Level Pressure  
Sea Level Pressure 30.23 in    
Wind  
Wind Speed 12 mph ()    
Max Wind Speed 22 mph    
Max Gust Speed 32 mph    
Visibility 10.0 miles    
Events Rain    
T = Trace of Precipitation, MM = Missing Value Source: Averaged Metar Reports

Daily Weather History Graph

Daily Weather History Graph

Search for Another Location

Airport or City:

Astronomy

Sep. 14, 2019 Rise Set
Actual Time 6:27 AM EDT 7:03 PM EDT
Civil Twilight 5:58 AM EDT 7:32 PM EDT
Nautical Twilight 5:24 AM EDT 8:06 PM EDT
Astronomical Twilight 4:48 AM EDT 8:42 PM EDT
Moon 7:43 PM EDT (9/14) 6:37 AM EDT (9/14)
Length of Visible Light 13h 33m
Length of Day
12h 35m
Full, 100% of the Moon is Illuminated
Sep 14
Full
Sep 21
Last Quarter
Sep 28
New
Oct 5
First Quarter
Oct 13
Full

Hourly Weather History & Observations

Time (EDT) Temp. Dew Point Humidity Pressure Visibility Wind Dir Wind Speed Gust Speed Precip Events Conditions
12:51 AM 51.1 °F 41.0 °F 68% 30.38 in 10.0 mi South 17.3 mph 25.3 mph N/A   Clear
1:51 AM 51.1 °F 41.0 °F 68% 30.37 in 10.0 mi South 16.1 mph 24.2 mph N/A   Scattered Clouds
2:51 AM 52.0 °F 42.1 °F 69% 30.34 in 10.0 mi South 17.3 mph 27.6 mph N/A   Overcast
3:51 AM 51.1 °F 43.0 °F 74% 30.33 in 10.0 mi South 16.1 mph 25.3 mph N/A   Overcast
4:51 AM 51.1 °F 43.0 °F 74% 30.30 in 10.0 mi South 16.1 mph 26.5 mph N/A   Overcast
5:51 AM 51.1 °F 44.1 °F 77% 30.32 in 10.0 mi South 10.4 mph 18.4 mph N/A   Overcast
6:49 AM 51.8 °F 44.6 °F 76% 30.29 in 10.0 mi South 9.2 mph 19.6 mph N/A   Overcast
6:51 AM 52.0 °F 45.0 °F 77% 30.30 in 10.0 mi South 12.7 mph - N/A   Overcast
7:51 AM 53.1 °F 46.0 °F 77% 30.30 in 10.0 mi South 12.7 mph 19.6 mph N/A   Overcast
8:51 AM 53.1 °F 46.9 °F 80% 30.28 in 10.0 mi South 8.1 mph - 0.00 in Rain Light Rain
9:25 AM 54.0 °F 48.9 °F 83% 30.26 in 10.0 mi South 13.8 mph 19.6 mph 0.00 in Rain Light Rain
9:47 AM 53.6 °F 48.2 °F 82% 30.26 in 10.0 mi South 13.8 mph 23.0 mph 0.00 in   Overcast
9:51 AM 54.0 °F 48.9 °F 83% 30.27 in 10.0 mi South 16.1 mph - 0.00 in   Overcast
10:51 AM 55.0 °F 50.0 °F 83% 30.26 in 10.0 mi South 11.5 mph - N/A   Overcast
11:51 AM 55.9 °F 51.1 °F 84% 30.25 in 10.0 mi South 10.4 mph - N/A   Overcast
12:27 PM 57.0 °F 52.0 °F 83% 30.22 in 10.0 mi South 10.4 mph 19.6 mph N/A   Overcast
12:51 PM 57.0 °F 53.1 °F 87% 30.23 in 10.0 mi South 10.4 mph - N/A   Overcast
1:37 PM 61.0 °F 55.0 °F 81% 30.19 in 10.0 mi South 11.5 mph - N/A   Overcast
1:51 PM 60.1 °F 55.0 °F 83% 30.19 in 10.0 mi South 11.5 mph 19.6 mph N/A   Overcast
2:51 PM 60.1 °F 55.0 °F 83% 30.17 in 10.0 mi South 10.4 mph - N/A   Overcast
3:51 PM 61.0 °F 55.9 °F 83% 30.15 in 10.0 mi South 15.0 mph - N/A   Overcast
4:51 PM 61.0 °F 57.0 °F 87% 30.14 in 10.0 mi SSE 18.4 mph - N/A   Overcast
5:51 PM 63.0 °F 57.9 °F 84% 30.14 in 10.0 mi South 12.7 mph - N/A   Overcast
6:51 PM 63.0 °F 57.9 °F 84% 30.14 in 10.0 mi South 11.5 mph - N/A   Overcast
7:09 PM 63.0 °F 57.9 °F 84% 30.13 in 10.0 mi South 9.2 mph - N/A   Mostly Cloudy
7:51 PM 63.0 °F 57.9 °F 84% 30.14 in 10.0 mi South 13.8 mph - N/A   Scattered Clouds
8:51 PM 63.0 °F 57.9 °F 84% 30.15 in 10.0 mi South 8.1 mph - N/A   Mostly Cloudy
9:51 PM 63.0 °F 57.9 °F 84% 30.15 in 10.0 mi SSW 9.2 mph - N/A   Partly Cloudy
10:51 PM 62.1 °F 57.9 °F 86% 30.15 in 10.0 mi Variable 3.5 mph - N/A   Scattered Clouds
11:51 PM 60.1 °F 57.0 °F 90% 30.15 in 10.0 mi Calm Calm - N/A   Overcast